FENGYUN 3D

Last updated on Sat Dec 13 2025 00:02:23 GMT+0000 (Coordinated Universal Time)

1 43010U 17072A 25346.31541302 .00000546 00000+0 27986-3 0 9993 2 43010 98.9895 312.6192 0000921 183.6817 176.4352 14.19685104418479
UTC large
Height (km)
Speed (km/s)
/
Latitude / Longitude
Inclination (degrees)
Orbital Period (minutes)
Azimuth
Elevation
Range (km)
Doppler Factor

Next 0 passes for location: London (51.5072 / 0.1276)

Sorry there are no passes over London.